Location: Newark
(36.6294°S, 72.9458°W)
Time: 08:03:07
(UTC+00:00)

Envisat - Visible Passes

Search period start: 22 January 2020 00:00
Search period end: 01 February 2020 00:00
Orbit: 764 x 766 km, 98.1° (Epoch: 21 January)

Date Brightness Start Highest point End Pass type
(mag) Time Alt. Az. Time Alt. Az. Time Alt. Az.
22 Jan 5.9 00:36:14 10° SSW 00:40:15 23° WSW 00:44:14 10° WNW visible
24 Jan 6.4 01:02:59 10° SW 01:05:25 13° WSW 01:07:50 10° W visible
26 Jan 6.5 09:23:22 10° E 09:25:53 14° ESE 09:28:25 10° SSE visible
27 Jan 6.2 00:51:01 10° SSW 00:54:16 17° WSW 00:57:30 10° WNW visible
29 Jan 6.8 09:13:38 10° ESE 09:14:46 11° ESE 09:15:54 10° SE visible
30 Jan 6.0 00:39:16 10° SSW 00:43:06 22° WSW 00:46:54 10° WNW visible
31 Jan 6.2 09:36:21 10° ENE 09:39:54 19° ESE 09:43:27 10° SSE visible
